Weather in Khaukkavaara

Russia / Republic of Karelia     61°15′08″N   29°41′14″E
temp.,
°C
wind,
m/s
gust,
m/s
humid.,
%
clouds,
%
prec.,
mm/h
press.,
hPa
HPBL,
m
15 august, mon
mon1500:00+15sse11575 0.0 102116
03:00+14e11525 0.0 102118
06:00+14ene115648 0.0 102120
09:00+20ese244515 0.0 1021299
12:00+23e334348 0.0 1021622
15:00+23e455239 0.0 1020674
18:00+22e346284 0.0 1019263
21:00+17e248599 0.0 101972
16 august, tue
tue1600:00+17ese228596 0.0 102034
03:00+17e118689 0.0 102012
06:00+17se118589 0.0 101913
09:00+23ese345924 0.0 1019291
12:00+26ese45485 0.0 10191025
15:00+26e454837 0.0 10181340
18:00+23ese386391 0.0 1018255
21:00+20ese24757 0.0 101866
17 august, wed
wed1700:00+19sse117787 0.0 101917
03:00+18sse12795 0.0 101816
06:00+17s2280100 0.1 101840
09:00+22s2566100 0.1 1018288
12:00+26s355068 0.0 10181035
15:00+28s354360 0.0 10171872
18:00+26sse355399 0.0 10171012
21:00+20sse26753 0.0 1017100
18 august, thu
thu1800:00+19s28805 0.0 1018156
03:00+18ssw22855 0.0 101841
06:00+17s128829 0.0 101831
09:00+22sse236793 0.0 1019273
12:00+26se235187 0.0 10191060
15:00+26e435441 0.1 1019810
18:00+21ese377288 0.6 1019195
21:00+19ese22815 0.9 102025
19 august, fri
fri1900:00+18ese22805 0.0 102015
03:00+17e22825 0.0 102015
06:00+17e228214 0.0 102123
09:00+22e236565 0.0 1021214
12:00+25e3455100 0.0 1021452
15:00+24e346314 0.2 1021326
18:00+21e368655 3.3 1021153
21:00+18e249390 9.8 102167